User: anonymous   Login
Location: Fremont
(37.5480°N, 121.9880°W)
Time: 04:08:07
(UTC-07:00)
Language:

Cosmos 1766 - Orbit

View from above orbital plane
View from above orbital plane
View from above satellite
View from above satellite

Ground track
Ground track

The orbit data is extracted from the following two-line orbital elements,

1 16881U 86055A   16203.93694476  .00001553  00000-0  94399-4 0  9990
2 16881  82.5124 346.5816 0017511 154.3719 205.8382 15.09628852631606
Epoch (UTC): 21 July 2016 22:29:12
Eccentricity: 0.0017511
inclination: 82.5124°
perigee height: 525 km
apogee height: 549 km
right ascension of ascending node: 346.5816°
argument of perigee: 154.3719°
revolutions per day: 15.09628852
mean anomaly at epoch: 205.8382°
orbit number at epoch: 63160

The dashed part of the orbit path shows where the satellite is in the earth's shadow,  

DLR